Back to catalog

STARLINK-30386

AliveCommunicationsVLEO
NORAD 57816·PAYLOAD·🇺🇸 United States

Launched Sep 9, 2023 from Cape Canaveral Space Force Station

Loading…

Next Passes (next 24 hours)

TLE

FreshSource: CelesTrak SupGP

Epoch: Sep 14, 2026, 21:31 UTC

1 57816C 23138J   26257.89701389  .00038836  00000+0  14068-2 0  2576
2 57816  43.0009 245.8893 0001584 261.3682  48.1712 15.27554415    13

Track STARLINK-30386 in real time with AllMySat

Download on the App Store